When you browse on this site, cookies collect data to enhance your experience and personalize the content and advertising you see.
Visit our Privacy Policy to learn more. By continuing to use the site, you agree to this use of cookies and data.
  • In Lithuania
  • List of Countries
  • For 7 days
  • Water Temperature
  • Weather Map
  • Weather Widgets
  • user-avatar
    Login

    Hourly Weather Innsbruck

    Today, 4 June, Thursday

    Time Temperature Precipitation Wind Pressure Humidity
    00:00 +4°C° 0 mm 2 mps 588 mmHg 89%
    01:00 +3°C° 0 mm 2 mps 588 mmHg 90%
    02:00 +3°C° 0 mm 2 mps 587 mmHg 91%
    03:00 +3°C° 0 mm 2 mps 587 mmHg 91%
    04:00 +3°C° 0 mm 2 mps 587 mmHg 92%
    05:00 +4°C° 0 mm 2 mps 587 mmHg 90%
    06:00 +5°C° 0 mm 2 mps 587 mmHg 87%
    07:00 +6°C° 0 mm 2 mps 587 mmHg 85%
    08:00 +7°C° 0.2 mm 2 mps 587 mmHg 82%
    09:00 +8°C° 0.2 mm 2 mps 588 mmHg 78%
    10:00 +8°C° 0.2 mm 2 mps 588 mmHg 75%
    11:00 +8°C° 0.3 mm 2 mps 588 mmHg 76%
    12:00 +8°C° 0.3 mm 2 mps 587 mmHg 78%
    13:00 +8°C° 0.3 mm 3 mps 587 mmHg 79%
    14:00 +8°C° 0.8 mm 2 mps 587 mmHg 82%
    15:00 +7°C° 0.8 mm 2 mps 586 mmHg 85%
    16:00 +6°C° 0.8 mm 2 mps 586 mmHg 88%
    17:00 +5°C° 1 mm 2 mps 585 mmHg 91%
    18:00 +5°C° 1 mm 2 mps 585 mmHg 93%
    19:00 +5°C° 1 mm 1 mps 585 mmHg 95%
    20:00 +5°C° 0.9 mm 1 mps 584 mmHg 96%
    21:00 +4°C° 0.9 mm 1 mps 584 mmHg 97%
    22:00 +4°C° 0.9 mm 1 mps 584 mmHg 98%
    23:00 +4°C° 1.3 mm 1 mps 584 mmHg 97%

    Tomorrow, 5 June, Friday

    Time Temperature Precipitation Wind Pressure Humidity
    00:00 +4°C° 1.3 mm 1 mps 584 mmHg 97%
    01:00 +4°C° 1.3 mm 1 mps 584 mmHg 97%
    02:00 +3°C° 0.4 mm 1 mps 584 mmHg 97%
    03:00 +3°C° 0.4 mm 1 mps 584 mmHg 96%
    04:00 +3°C° 0.4 mm 1 mps 584 mmHg 96%
    05:00 +3°C° 0.3 mm 1 mps 584 mmHg 96%
    06:00 +3°C° 0.3 mm 1 mps 584 mmHg 96%
    07:00 +3°C° 0.3 mm 1 mps 585 mmHg 96%
    08:00 +4°C° 0.4 mm 1 mps 585 mmHg 94%
    09:00 +4°C° 0.4 mm 1 mps 586 mmHg 92%
    10:00 +4°C° 0.4 mm 2 mps 586 mmHg 90%
    11:00 +5°C° 0.3 mm 2 mps 586 mmHg 86%
    12:00 +6°C° 0.3 mm 2 mps 587 mmHg 82%
    13:00 +6°C° 0.3 mm 2 mps 587 mmHg 78%
    14:00 +7°C° 0.2 mm 2 mps 587 mmHg 76%
    15:00 +8°C° 0.2 mm 1 mps 588 mmHg 73%
    16:00 +8°C° 0.2 mm 1 mps 588 mmHg 70%
    17:00 +8°C° 0.1 mm 1 mps 588 mmHg 74%
    18:00 +7°C° 0.1 mm 1 mps 588 mmHg 78%
    19:00 +7°C° 0.1 mm 1 mps 588 mmHg 82%
    20:00 +5°C° 0 mm 1 mps 588 mmHg 85%
    21:00 +4°C° 0 mm 1 mps 587 mmHg 89%
    22:00 +2°C° 0 mm 1 mps 587 mmHg 92%
    23:00 +2°C° 0 mm 1 mps 587 mmHg 91%

    Day after tomorrow, 6 June, Saturday

    Time Temperature Precipitation Wind Pressure Humidity
    00:00 +1°C° 0 mm 2 mps 587 mmHg 90%
    01:00 +2°C° 0 mm 2 mps 588 mmHg 89%
    02:00 +2°C° 0 mm 2 mps 588 mmHg 90%
    03:00 +2°C° 0 mm 2 mps 588 mmHg 90%
    04:00 +2°C° 0 mm 2 mps 588 mmHg 90%
    05:00 +3°C° 0 mm 2 mps 589 mmHg 87%
    06:00 +5°C° 0 mm 2 mps 590 mmHg 84%
    07:00 +7°C° 0 mm 1 mps 590 mmHg 80%
    08:00 +8°C° 0.1 mm 1 mps 591 mmHg 76%
    09:00 +10°C° 0.1 mm 1 mps 592 mmHg 72%
    10:00 +10°C° 0.1 mm 2 mps 593 mmHg 69%
    11:00 +10°C° 0.4 mm 2 mps 593 mmHg 70%
    12:00 +10°C° 0.4 mm 2 mps 593 mmHg 71%
    13:00 +12°C° 0.4 mm 2 mps 593 mmHg 72%
    14:00 +10°C° 0.9 mm 2 mps 592 mmHg 76%
    15:00 +9°C° 0.9 mm 2 mps 592 mmHg 81%
    16:00 +9°C° 0.9 mm 2 mps 592 mmHg 86%
    17:00 +9°C° 1.4 mm 1 mps 591 mmHg 89%
    18:00 +8°C° 1.4 mm 1 mps 591 mmHg 93%
    19:00 +7°C° 1.4 mm 1 mps 591 mmHg 97%
    20:00 +7°C° 1.2 mm 1 mps 591 mmHg 97%
    21:00 +6°C° 1.2 mm 1 mps 591 mmHg 98%
    22:00 +6°C° 1.2 mm 1 mps 592 mmHg 98%
    23:00 +6°C° 0.2 mm 1 mps 591 mmHg 98%

    7 June, Sunday

    Time Temperature Precipitation Wind Pressure Humidity
    00:00 +6°C° 0.2 mm 1 mps 591 mmHg 98%
    01:00 +5°C° 0.2 mm 1 mps 591 mmHg 98%
    02:00 +5°C° 0.1 mm 1 mps 591 mmHg 98%
    03:00 +5°C° 0.1 mm 1 mps 591 mmHg 98%
    04:00 +5°C° 0.1 mm 1 mps 591 mmHg 98%
    05:00 +6°C° 0.3 mm 1 mps 591 mmHg 97%
    06:00 +6°C° 0.3 mm 1 mps 591 mmHg 97%
    07:00 +6°C° 0.3 mm 1 mps 591 mmHg 96%
    08:00 +6°C° 0.7 mm 1 mps 591 mmHg 96%
    09:00 +6°C° 0.7 mm 1 mps 592 mmHg 96%
    10:00 +6°C° 0.7 mm 1 mps 592 mmHg 97%
    11:00 +6°C° 0.8 mm 1 mps 592 mmHg 97%
    12:00 +6°C° 0.8 mm 1 mps 592 mmHg 97%
    13:00 +6°C° 0.8 mm 1 mps 592 mmHg 97%
    14:00 +5°C° 2.9 mm 1 mps 592 mmHg 97%
    15:00 +4°C° 2.9 mm 2 mps 591 mmHg 98%
    16:00 +3°C° 2.9 mm 2 mps 591 mmHg 98%
    17:00 +3°C° 3.6 mm 1 mps 591 mmHg 98%
    18:00 +2°C° 3.6 mm 1 mps 591 mmHg 98%
    19:00 +2°C° 3.6 mm 1 mps 591 mmHg 98%
    20:00 +2°C° 0.5 mm 1 mps 591 mmHg 98%
    21:00 +2°C° 0.5 mm 1 mps 592 mmHg 98%
    22:00 +2°C° 0.5 mm 1 mps 592 mmHg 98%
    23:00 +2°C° 0.1 mm 1 mps 592 mmHg 97%

    8 June, Monday

    Time Temperature Precipitation Wind Pressure Humidity
    00:00 +2°C° 0.1 mm 1 mps 592 mmHg 97%
    01:00 +2°C° 0.1 mm 1 mps 592 mmHg 97%
    02:00 +2°C° 0 mm 1 mps 592 mmHg 97%
    03:00 +2°C° 0 mm 1 mps 591 mmHg 98%
    04:00 +2°C° 0 mm 1 mps 591 mmHg 98%
    05:00 +2°C° 0 mm 1 mps 592 mmHg 97%
    06:00 +3°C° 0 mm 1 mps 592 mmHg 96%
    07:00 +3°C° 0 mm 1 mps 592 mmHg 96%
    08:00 +4°C° 0.1 mm 1 mps 592 mmHg 94%
    09:00 +4°C° 0.1 mm 1 mps 593 mmHg 92%
    10:00 +5°C° 0.1 mm 1 mps 593 mmHg 90%
    11:00 +5°C° 0.1 mm 1 mps 593 mmHg 89%
    12:00 +5°C° 0.1 mm 1 mps 593 mmHg 88%
    13:00 +6°C° 0.1 mm 1 mps 593 mmHg 87%
    14:00 +6°C° 0.1 mm 1 mps 593 mmHg 87%
    15:00 +6°C° 0.1 mm 1 mps 593 mmHg 86%
    16:00 +6°C° 0.1 mm 1 mps 593 mmHg 86%
    17:00 +6°C° 0.1 mm 1 mps 593 mmHg 87%
    18:00 +6°C° 0.1 mm 1 mps 593 mmHg 88%
    19:00 +5°C° 0.1 mm 1 mps 593 mmHg 90%
    20:00 +5°C° 0.7 mm 1 mps 593 mmHg 92%
    21:00 +4°C° 0.7 mm 1 mps 593 mmHg 94%
    22:00 +3°C° 0.7 mm 0 mps 593 mmHg 97%
    23:00 +2°C° 2 mm 0 mps 593 mmHg 97%

    9 June, Tuesday

    Time Temperature Precipitation Wind Pressure Humidity
    00:00 +2°C° 2 mm 0 mps 593 mmHg 98%
    01:00 +3°C° 2 mm 1 mps 593 mmHg 98%
    02:00 +3°C° 1.4 mm 1 mps 593 mmHg 98%
    03:00 +3°C° 1.4 mm 1 mps 593 mmHg 98%
    04:00 +3°C° 1.4 mm 1 mps 592 mmHg 98%
    05:00 +3°C° 0.3 mm 1 mps 593 mmHg 97%
    06:00 +2°C° 0.3 mm 0 mps 593 mmHg 97%
    07:00 +3°C° 0.3 mm 0 mps 593 mmHg 97%
    08:00 +3°C° 0.4 mm 0 mps 594 mmHg 96%
    09:00 +4°C° 0.4 mm 1 mps 594 mmHg 96%
    10:00 +5°C° 0.4 mm 1 mps 594 mmHg 95%
    11:00 +5°C° 0.5 mm 1 mps 594 mmHg 94%
    12:00 +6°C° 0.5 mm 1 mps 594 mmHg 93%
    13:00 +6°C° 0.5 mm 1 mps 595 mmHg 91%
    14:00 +6°C° 0.9 mm 1 mps 594 mmHg 93%
    15:00 +6°C° 0.9 mm 1 mps 594 mmHg 95%
    16:00 +5°C° 0.9 mm 1 mps 594 mmHg 96%
    17:00 +5°C° 1.9 mm 1 mps 594 mmHg 97%
    18:00 +4°C° 1.9 mm 1 mps 594 mmHg 97%
    19:00 +4°C° 1.9 mm 1 mps 594 mmHg 98%
    20:00 +4°C° 0.9 mm 1 mps 594 mmHg 98%
    21:00 +4°C° 0.9 mm 1 mps 594 mmHg 98%
    22:00 +3°C° 0.9 mm 1 mps 594 mmHg 98%
    23:00 +3°C° 1.2 mm 1 mps 594 mmHg 98%
    Show more